Theta_e
306 308 309 309 309 308 309 309 309 309 309 309 308 308 308 309 310 310 309 309 311 311 310 310 308 306 307 307 307 307 311 311 311 311 313 314 314 316 317 318 317 319 319 318 318 324 322 324 323 325 327 329 329 328 330 331 331 329 330 327 326 326 329 333 333 329 324 322 324 323 323 324 324 323 323 324 324 324 323 324 326 326 326 325 325
306 307 308 308 307 308 308 309 310 308 308 308 307 307 307 309 310 310 309 310 310 311 312 311 306 307 307 308 305 308 310 308 308 309 311 315 313 312 312 311 311 314 318 317 317 316 318 320 321 322 323 324 328 329 329 331 332 331 329 326 327 326 325 329 330 327 322 319 319 319 321 322 323 322 321 323 324 323 323 323 324 325 326 326 326
303 306 307 308 307 308 308 309 309 309 309 308 307 307 307 308 309 310 310 311 310 312 312 310 308 308 307 305 309 307 306 308 307 312 315 310 310 311 312 310 311 311 314 318 317 315 315 316 316 317 320 322 321 322 324 324 326 329 329 327 324 326 326 328 327 328 323 321 319 319 314 316 319 319 320 321 322 323 323 323 324 324 326 327 327
303 305 307 308 307 307 308 308 308 308 309 307 307 307 308 309 308 310 310 311 311 313 316 310 309 307 308 308 308 307 307 312 307 308 308 310 310 310 311 309 311 311 313 315 314 313 313 314 313 315 316 318 319 319 320 321 322 326 329 330 329 324 324 325 329 328 325 322 315 316 314 313 311 316 318 320 321 321 322 323 324 324 324 325 326
303 305 306 307 307 307 308 309 308 307 308 308 308 307 309 308 309 310 311 311 311 315 313 310 310 309 311 311 310 308 308 305 306 307 306 314 310 308 309 310 311 310 311 314 315 312 312 312 314 313 315 315 316 316 317 318 320 322 325 328 328 326 325 325 324 327 327 327 321 315 312 311 312 313 314 316 319 319 320 321 322 324 324 324 324
304 305 307 308 308 308 307 307 307 307 308 309 309 309 309 309 310 311 310 311 312 312 310 311 310 309 309 308 306 304 304 304 304 304 306 307 306 307 309 309 310 310 310 312 316 315 312 312 312 314 314 316 316 314 314 316 317 318 321 325 326 327 327 324 325 325 326 326 326 324 318 314 313 317 316 312 317 320 321 321 321 322 324 323 324
303 306 307 308 308 307 307 307 308 307 309 309 309 309 309 309 310 311 311 311 312 310 310 311 308 309 310 309 307 306 306 304 302 302 305 305 305 307 308 309 310 310 310 310 312 313 312 311 312 312 314 314 315 314 314 314 316 318 319 319 322 326 327 323 323 325 325 325 326 325 324 324 324 317 312 312 312 314 318 321 322 322 322 323 324
304 305 307 308 308 308 307 308 308 308 308 308 308 309 309 309 310 311 311 312 311 310 310 310 308 308 308 307 308 306 307 307 303 303 303 308 304 307 308 308 308 310 310 310 311 313 312 311 310 311 313 315 315 313 313 313 315 316 317 317 318 320 323 323 323 324 322 323 323 323 323 324 325 324 323 319 316 314 316 319 320 320 320 322 323
304 305 306 307 308 308 308 308 309 308 308 308 309 309 311 310 310 311 311 311 310 310 310 308 310 309 308 308 308 307 307 305 306 309 306 308 305 307 307 307 307 308 309 311 310 312 314 310 309 310 311 312 314 312 312 313 313 313 314 315 315 316 318 322 322 321 323 322 323 323 325 324 324 323 321 322 318 316 316 317 317 318 318 320 322
304 306 308 308 309 309 309 310 309 308 309 310 308 309 310 310 310 311 310 310 310 310 310 308 309 311 308 307 308 306 306 305 305 306 305 304 305 305 305 306 307 308 307 308 309 309 309 310 309 309 309 311 312 309 310 311 311 312 312 313 314 314 315 317 317 319 321 321 322 322 321 322 322 322 323 323 322 320 316 317 316 316 316 317 318
303 305 307 309 310 309 308 307 308 306 306 308 308 309 310 310 310 311 311 310 310 310 309 307 309 310 309 308 308 306 305 305 304 303 304 303 304 303 304 305 307 308 308 307 308 309 309 310 308 308 309 312 310 308 308 309 309 309 310 311 311 311 312 313 313 314 316 316 317 319 319 320 319 318 317 319 319 318 318 318 319 320 319 319 322
303 305 306 307 307 307 308 307 307 307 306 308 308 309 310 311 311 310 310 309 309 309 308 307 309 309 309 309 308 307 305 305 305 305 305 305 303 304 303 306 307 307 307 306 306 307 307 306 307 306 308 306 306 307 307 307 308 308 308 310 309 310 311 311 311 310 311 312 313 315 317 319 318 319 321 322 320 320 319 318 319 319 319 320 322
302 304 305 306 307 307 308 308 307 307 308 308 309 309 310 311 311 311 310 309 309 309 308 307 308 309 309 309 309 308 306 305 305 305 305 305 304 304 303 305 304 307 306 306 307 306 306 305 305 305 306 308 307 307 306 307 306 306 307 307 307 308 308 308 308 308 309 310 310 312 314 315 317 320 322 322 323 322 320 318 319 321 318 318 320
300 303 305 306 308 308 309 309 309 309 309 309 309 310 310 312 312 311 311 310 309 309 308 307 308 309 309 309 309 309 306 306 304 305 305 305 305 305 306 306 305 307 305 305 306 305 305 307 306 304 304 305 306 305 305 305 306 307 306 306 306 306 306 307 307 307 308 308 309 309 311 312 314 316 318 320 320 320 319 318 317 319 319 318 319
298 301 304 306 308 308 309 310 310 310 310 309 310 310 310 311 312 312 311 310 309 309 308 308 308 309 309 309 308 309 307 306 305 306 305 305 305 305 305 304 305 306 305 305 306 304 305 304 304 303 304 304 304 303 305 304 304 306 306 305 306 306 305 306 305 305 306 306 306 307 309 310 311 312 314 316 319 319 319 320 318 314 316 318 317
298 299 303 303 305 307 309 310 310 311 310 311 310 311 310 311 312 313 312 311 309 309 308 308 309 309 309 308 307 309 309 307 306 307 305 305 306 305 305 304 305 305 304 305 305 304 304 305 304 303 303 303 303 303 302 303 303 303 302 302 302 307 304 303 303 303 304 304 304 305 305 306 308 310 311 311 313 314 316 318 320 317 314 312 315
295 299 300 304 306 306 308 309 310 311 311 311 311 311 311 311 311 312 313 312 310 310 309 308 309 309 308 308 307 306 307 306 305 305 305 304 306 305 305 305 304 304 305 305 304 303 303 303 303 303 302 302 302 303 303 302 301 301 301 301 300 302 303 302 302 302 302 303 303 303 303 304 305 307 307 308 308 310 313 315 318 317 317 313 312
296 296 299 304 305 306 306 307 308 310 311 312 312 312 312 312 312 312 313 312 311 310 309 308 308 309 309 307 307 307 307 306 306 305 306 305 304 305 303 304 304 305 307 308 304 303 303 308 302 301 301 301 301 301 300 300 300 300 300 300 301 301 301 301 302 302 301 302 302 302 302 301 303 304 304 305 306 308 309 310 312 315 317 315 315
295 296 297 298 300 303 305 306 307 308 309 311 313 313 312 312 312 313 313 314 313 311 310 309 309 310 310 309 307 307 307 306 306 306 306 305 304 304 304 304 303 305 308 306 304 303 303 301 301 300 300 300 300 300 301 299 299 299 301 300 300 300 300 300 300 302 302 302 300 300 300 301 301 302 302 302 304 306 306 308 309 311 313 314 314
294 295 296 297 298 301 303 305 308 308 307 309 311 311 311 312 312 312 313 312 312 311 310 309 308 309 309 309 308 308 307 307 306 306 305 305 305 305 304 303 304 307 305 305 304 304 303 301 300 300 299 299 299 299 298 298 298 299 298 300 300 299 300 299 300 300 302 301 299 299 300 300 300 301 301 301 302 303 304 305 306 307 309 312 314
293 294 296 297 297 298 301 302 305 308 308 309 310 311 312 311 311 312 312 312 312 312 310 310 309 309 309 308 308 307 306 306 305 306 305 305 305 306 305 305 305 304 304 303 303 302 301 301 300 301 299 299 299 298 297 297 297 297 298 298 298 299 299 299 301 300 300 300 300 299 299 300 300 300 300 301 301 302 302 303 304 306 306 308 310
292 294 295 297 298 299 300 301 302 303 307 307 309 310 310 311 312 312 311 311 312 312 312 311 309 309 308 308 308 307 307 306 305 305 305 304 304 305 304 305 304 303 303 302 302 300 299 299 299 299 298 298 298 297 297 297 298 297 296 299 299 297 298 298 298 299 299 300 300 299 299 299 300 300 300 300 300 300 301 301 302 303 304 305 309
292 293 295 296 298 298 300 301 300 301 303 305 307 310 311 311 311 311 312 312 313 312 311 310 309 308 308 308 308 307 306 305 305 304 304 304 304 303 305 304 303 302 301 302 301 300 299 298 298 296 296 296 297 297 297 297 297 297 296 296 298 297 297 298 298 298 298 299 298 299 299 299 301 300 300 300 300 300 301 300 301 302 302 303 305
293 294 296 297 297 299 300 300 301 301 302 303 305 307 310 311 312 311 311 312 313 313 313 312 311 309 306 305 306 306 306 305 304 304 303 303 303 303 304 303 302 301 301 299 300 299 299 298 298 296 296 296 296 297 297 296 297 296 296 296 296 296 297 297 298 298 298 298 299 299 299 299 300 299 299 299 300 300 300 300 300 301 301 301 303
293 294 294 296 297 297 298 299 300 301 301 302 303 305 307 311 311 312 312 312 313 313 313 312 311 310 308 305 304 304 305 304 304 303 303 303 302 303 302 302 301 300 299 300 299 298 297 297 297 296 296 295 295 295 295 295 295 295 295 295 296 296 296 297 297 298 300 300 300 300 300 300 300 299 299 299 300 299 300 300 300 300 300 301 302
293 294 295 295 295 296 297 297 299 300 300 301 302 304 305 308 311 312 313 313 313 312 311 311 311 310 308 307 306 303 303 303 304 303 303 303 303 302 302 301 301 299 297 297 298 297 298 296 296 295 295 294 294 294 294 294 294 294 295 295 295 295 296 297 297 298 299 300 300 301 301 301 300 300 300 300 300 300 300 299 299 299 300 300 300
293 293 293 294 295 295 295 296 297 298 299 300 300 302 304 305 307 309 310 312 313 313 313 312 310 310 309 308 307 306 305 304 304 304 304 303 303 302 302 301 300 299 298 297 296 297 296 296 295 295 295 294 294 294 293 293 293 293 294 294 294 295 296 296 297 298 298 298 299 300 301 301 301 301 301 300 301 300 301 300 301 301 301 300 299
292 293 293 293 293 294 295 296 296 298 299 299 300 300 301 304 306 308 308 309 311 311 313 312 311 310 309 308 307 306 306 306 305 305 305 304 303 302 301 300 300 298 297 297 296 296 295 295 295 294 294 295 293 293 292 292 293 293 294 294 294 295 295 295 295 295 296 296 296 297 297 298 298 299 300 301 301 300 301 300 301 301 301 300 299
291 291 291 292 293 293 294 295 296 297 298 299 299 300 301 302 303 306 308 308 309 311 312 312 310 308 306 305 306 307 307 306 305 304 304 303 303 302 301 300 299 298 298 296 296 296 295 294 293 294 294 295 293 293 294 294 293 293 292 293 293 293 293 293 293 294 294 295 295 296 296 296 299 301 299 299 299 299 298 297 297 298 298 297 297
290 290 290 291 292 292 293 295 295 296 297 298 299 299 300 301 302 304 305 308 308 311 311 311 310 311 310 308 307 306 305 305 305 304 304 303 302 301 300 299 298 298 297 296 295 294 294 293 293 291 291 293 293 294 298 297 297 295 294 294 294 293 293 293 293 293 293 294 294 294 297 299 299 299 298 296 295 296 297 298 297 297 297 296 296
290 290 290 290 291 292 292 293 294 295 296 297 298 299 300 300 301 302 303 306 308 310 310 311 310 311 310 308 307 306 305 305 305 304 303 303 302 301 299 298 297 297 296 296 294 293 292 293 293 291 291 292 293 294 295 293 293 294 294 293 293 293 293 293 292 292 292 293 293 294 294 296 298 298 297 296 294 294 294 294 294 295 296 296 295
289 290 290 291 292 292 293 293 294 295 296 296 297 299 299 299 300 301 302 305 307 309 310 310 309 308 307 307 305 305 305 305 305 304 303 303 302 300 298 297 296 295 295 294 293 293 293 292 291 290 289 291 292 296 292 292 293 292 294 294 292 292 292 292 292 292 292 292 293 293 293 295 295 295 295 295 295 295 294 293 293 293 293 293 294
289 290 291 291 291 292 293 293 294 295 296 297 297 297 298 299 299 301 303 305 306 308 309 308 308 307 307 307 306 305 305 304 305 304 303 302 301 300 298 296 296 296 294 293 293 292 292 291 291 290 290 291 291 294 292 293 292 292 292 292 291 291 291 291 291 292 292 292 292 293 293 293 294 297 298 295 294 294 294 294 294 294 294 293 292
289 289 290 291 291 292 293 293 294 295 296 297 298 298 298 299 300 301 302 305 305 306 306 306 306 307 307 308 307 306 305 305 304 303 302 301 300 299 298 297 296 294 293 293 292 292 291 290 290 290 289 289 289 293 292 292 292 291 291 291 290 290 290 290 291 291 291 291 292 292 292 292 292 293 293 293 293 292 292 292 293 293 293 294 293
289 289 290 290 290 291 292 293 294 295 296 296 297 297 297 298 299 300 301 303 305 305 305 305 306 307 306 306 307 307 305 305 304 303 302 300 299 297 296 296 295 294 293 292 292 291 291 291 290 287 287 287 289 292 291 291 291 291 291 291 290 290 290 290 290 290 291 291 291 292 291 291 291 291 292 293 292 292 292 292 292 292 292 292 293
289 289 290 290 291 291 292 293 296 296 296 296 296 297 296 297 298 299 300 302 303 304 304 303 304 305 305 305 304 303 302 301 301 301 300 299 297 296 295 294 293 292 292 291 290 290 290 288 288 287 286 286 286 290 290 290 290 290 290 290 289 288 288 289 289 289 290 290 291 291 291 291 291 291 293 292 293 293 291 291 290 291 291 292 292
290 290 291 291 292 292 293 294 294 295 295 295 296 296 296 297 297 299 301 302 303 303 303 303 303 304 304 304 305 304 302 302 302 301 300 297 295 294 293 293 292 292 291 290 290 290 290 289 288 287 285 284 285 289 290 290 290 290 290 289 288 288 288 288 288 289 289 290 290 290 290 290 291 291 292 291 291 291 291 290 290 290 290 291 291
290 291 291 291 291 292 294 294 294 294 295 296 296 296 296 296 297 298 299 301 303 303 303 303 303 304 304 305 304 304 302 300 300 299 297 295 294 294 293 294 292 290 290 290 289 289 288 289 288 287 286 284 285 288 290 290 290 290 290 288 288 287 287 287 287 288 288 289 290 293 294 291 291 291 291 290 290 291 290 290 289 289 289 289 290
291 291 291 291 292 292 294 294 293 293 295 295 296 296 296 296 297 298 299 300 302 303 303 303 303 304 306 306 304 304 303 303 302 300 297 295 295 295 294 293 292 291 290 289 290 288 287 287 288 287 293 289 285 287 291 290 290 290 290 288 288 287 286 286 286 287 287 288 288 290 292 292 291 291 290 290 290 290 290 290 290 290 289 288 289
291 291 291 292 293 293 293 292 292 293 294 295 296 296 296 297 298 298 298 299 301 303 304 304 304 304 305 304 303 302 302 302 300 297 297 296 295 294 293 292 290 290 289 288 289 288 287 288 287 288 288 287 285 284 287 289 290 290 290 290 288 286 286 286 286 287 287 288 288 288 290 289 289 289 289 289 289 289 290 290 290 289 288 288 291
291 291 293 292 292 292 292 292 293 294 295 295 296 296 296 296 297 297 297 299 302 303 303 303 302 303 303 303 303 303 302 301 300 297 296 295 295 294 292 291 289 287 286 286 286 286 286 286 285 284 284 283 285 285 287 289 290 290 290 289 287 287 286 286 286 287 287 287 287 288 289 290 289 289 289 289 289 289 289 290 290 289 290 291 291
291 293 292 291 291 291 292 292 293 294 295 295 295 295 295 296 296 296 298 300 303 303 302 302 302 302 302 303 303 302 301 299 297 297 296 295 294 294 293 291 289 287 286 284 283 285 285 284 284 283 283 283 287 291 286 289 289 290 289 290 288 287 288 287 287 287 287 287 287 287 288 289 289 289 288 289 289 289 289 290 289 289 289 289 290
290 290 291 291 291 291 291 292 293 294 295 296 295 295 295 296 296 298 299 301 302 302 302 302 303 301 300 300 300 300 299 298 297 297 295 294 292 292 290 289 287 285 285 284 283 283 283 283 283 284 282 283 283 285 289 288 289 289 289 289 289 288 288 289 287 286 287 287 288 288 288 289 288 288 288 288 288 288 289 289 288 288 288 288 289
290 291 291 292 291 291 292 293 294 295 296 296 296 295 296 297 298 300 300 300 302 302 303 302 301 301 300 300 300 299 298 297 296 295 295 293 291 290 289 288 286 286 284 283 284 284 282 282 284 284 284 283 283 283 286 288 288 288 288 288 288 288 288 288 288 287 287 287 287 287 288 288 288 288 288 288 288 288 288 288 288 288 288 288 289
290 290 291 291 291 291 292 294 295 296 297 297 297 297 298 297 299 299 298 300 302 302 301 300 300 300 299 299 300 299 298 296 296 295 293 291 290 290 287 284 286 285 284 285 284 283 283 285 283 284 284 283 283 283 283 286 287 288 288 288 288 288 288 288 287 287 288 288 288 288 287 287 287 287 287 287 287 287 287 287 287 287 288 288 288
290 290 291 292 292 293 293 294 297 298 298 298 299 299 298 299 300 298 299 302 302 301 299 298 299 299 299 299 298 296 295 295 295 294 294 291 291 290 288 286 284 284 284 285 284 283 283 283 282 283 283 283 283 282 283 284 287 287 287 287 288 288 288 288 288 288 288 288 287 287 287 287 287 288 288 288 287 288 288 288 288 288 288 288 288
290 291 292 292 293 293 295 296 297 299 300 300 300 301 300 299 298 299 300 302 301 300 298 298 298 297 297 296 295 294 294 294 292 289 289 290 289 289 288 285 285 283 282 282 283 283 284 283 283 284 283 282 282 282 283 283 284 283 284 286 287 287 288 288 288 288 288 288 287 288 287 287 287 287 287 287 287 288 288 288 288 288 288 288 288
291 292 293 293 294 294 296 297 298 300 300 300 301 301 302 300 300 300 301 301 299 299 298 297 296 295 295 295 294 290 292 292 290 289 288 287 287 287 287 285 284 282 282 282 282 282 283 284 284 284 282 281 282 282 283 283 284 284 286 286 286 287 286 286 286 287 287 287 287 287 287 287 287 287 287 287 287 287 287 287 287 288 288 288 289
292 293 293 294 295 296 298 298 299 300 300 300 301 301 302 301 301 300 300 298 297 295 295 295 296 296 295 293 293 292 291 290 289 288 287 286 287 287 286 284 283 283 285 285 284 283 284 284 283 282 282 282 282 283 284 287 287 287 287 286 285 285 286 286 287 287 286 286 286 286 285 285 286 285 285 286 286 287 287 287 287 288 288 288 288
293 294 295 297 298 298 298 299 299 300 300 299 300 300 301 301 301 299 299 296 295 295 295 295 295 294 292 292 291 290 290 290 290 289 288 287 286 288 287 285 281 288 288 288 288 285 286 282 281 283 283 283 284 285 287 287 287 288 287 287 287 287 287 287 287 286 286 284 284 284 285 285 285 285 285 285 286 286 287 287 287 287 287 287 287
295 296 297 298 298 298 298 298 298 299 300 300 300 301 301 301 300 300 298 297 296 295 294 294 293 292 292 291 290 290 291 290 290 289 288 287 286 286 287 288 288 288 288 288 287 288 288 287 285 283 285 287 287 287 287 288 288 287 287 287 287 287 287 287 286 285 284 284 284 284 284 284 285 285 285 285 286 286 286 286 287 287 287 287 287
Wind_Speed
8 7 8 9 7 7 6 6 6 5 6 8 9 8 9 10 8 8 5 4 6 6 4 5 5 3 3 3 5 1 2 2 3 3 4 3 3 3 3 4 3 4 3 3 5 5 4 3 1 2 2 1 1 2 1 2 3 3 3 1 2 2 2 1 2 1 2 4 4 1 3 5 5 4 6 6 7 7 6 6 6 5 6 6 6
6 6 6 4 4 5 5 7 8 11 7 8 11 10 9 8 9 8 6 5 5 5 4 4 4 5 5 5 3 2 3 3 1 1 2 2 3 3 3 3 4 4 3 3 3 4 4 4 3 2 1 0 1 1 0 1 1 4 3 3 3 2 3 1 2 3 0 2 4 2 2 3 5 5 5 6 6 5 5 5 5 6 7 7 6
5 6 6 7 6 6 7 8 9 10 11 10 9 9 8 8 7 6 7 7 5 4 5 4 2 3 3 3 5 3 0 1 2 1 1 3 3 2 1 3 4 4 3 3 4 3 3 3 3 3 3 2 3 4 2 3 2 1 4 3 1 2 1 2 2 2 2 2 4 1 2 2 2 2 3 5 6 5 4 5 6 6 8 7 6
11 13 15 8 5 6 6 7 8 6 8 8 8 10 9 8 7 7 7 6 6 5 4 3 3 4 5 5 3 3 3 2 3 3 3 3 3 2 2 3 4 3 3 4 3 3 3 3 2 3 3 3 4 5 5 5 4 3 3 2 1 0 0 2 1 3 3 4 3 5 2 2 4 5 4 5 6 7 6 7 5 6 7 6 4
13 10 8 8 9 12 15 11 7 8 10 12 11 11 8 11 9 9 8 8 6 5 5 5 6 5 6 5 4 4 3 4 3 2 2 1 2 2 1 2 2 3 2 2 3 3 3 3 4 3 4 3 4 5 4 4 3 3 2 2 1 1 2 1 0 2 4 4 3 1 1 1 4 2 0 4 3 3 6 7 6 7 6 6 7
13 15 15 15 16 12 5 7 9 9 11 12 11 11 11 9 9 7 6 6 7 5 6 6 7 8 7 7 5 3 3 2 2 4 2 2 3 0 1 1 1 3 2 2 3 3 4 3 3 4 3 5 5 4 3 4 5 5 3 2 2 0 1 1 2 2 3 5 3 1 0 0 2 2 1 4 4 4 3 4 6 7 6 6 6
6 6 11 13 12 8 9 11 13 12 12 6 6 8 10 10 9 9 8 7 6 6 6 6 6 7 9 10 8 8 7 3 2 1 3 1 0 1 1 1 1 3 3 3 3 4 4 4 4 4 4 4 3 4 6 5 4 4 3 5 4 2 2 3 4 2 1 2 3 3 3 1 2 1 1 2 4 4 1 4 4 4 5 6 7
14 14 14 14 13 16 16 17 13 15 8 7 8 8 10 10 9 9 7 7 6 6 7 8 9 8 7 6 6 7 7 7 4 3 1 1 3 1 1 1 3 1 2 3 3 3 4 4 4 4 5 4 5 6 5 3 4 3 4 3 4 5 5 4 3 4 4 3 1 2 4 3 3 2 2 2 2 4 6 3 1 2 3 5 7
15 14 15 15 14 15 14 13 14 8 9 12 13 10 8 7 8 6 7 7 6 7 8 7 9 9 8 7 6 4 4 4 3 2 3 1 4 1 1 2 3 2 2 3 3 4 3 4 4 5 5 5 5 5 5 5 6 5 7 7 6 5 5 4 4 5 5 4 4 1 2 3 3 3 3 4 4 3 6 5 6 3 1 3 4
13 17 17 17 16 15 15 13 9 12 8 6 5 6 7 7 8 8 8 6 7 8 8 8 7 8 8 7 8 6 4 3 4 4 4 2 4 2 1 1 2 3 3 2 4 3 4 4 5 5 4 4 4 4 4 6 5 5 4 4 5 5 4 4 4 3 3 3 3 3 4 4 3 2 2 3 4 6 7 7 5 6 8 4 2
12 13 13 16 12 6 4 7 6 3 4 6 7 7 7 8 9 9 9 7 7 10 9 9 7 8 9 8 9 8 6 7 6 4 3 2 4 3 3 2 0 1 1 2 3 3 4 4 4 4 4 3 4 5 5 4 4 4 4 4 5 5 5 5 5 4 4 4 5 4 4 4 5 4 3 2 3 5 6 6 5 5 7 10 7
12 11 11 7 5 7 9 8 8 8 5 7 6 6 8 9 10 10 7 8 8 9 9 8 8 8 7 9 9 9 9 7 8 8 7 6 4 4 2 1 1 1 1 1 2 2 3 4 3 4 4 4 5 4 3 3 3 3 4 4 4 4 4 5 5 6 6 5 5 5 4 4 3 3 4 5 6 6 7 9 7 5 6 6 7
11 11 9 7 10 9 11 8 7 9 13 12 11 10 10 10 12 13 11 9 10 10 10 9 8 8 9 9 8 8 8 8 8 7 6 7 6 4 4 4 2 1 1 1 1 2 3 4 4 4 4 4 4 5 4 4 4 4 4 4 5 5 4 4 5 4 4 5 4 4 4 5 4 5 5 5 5 5 6 9 8 5 8 9 6
2 8 10 11 12 11 10 12 13 12 11 13 12 11 11 11 12 14 14 11 9 9 10 9 9 9 8 9 9 9 8 8 7 7 7 6 6 7 7 6 6 5 4 4 4 3 3 3 4 3 2 3 4 4 4 4 4 5 5 5 5 4 4 4 4 4 4 4 3 4 5 5 5 5 6 5 6 7 6 5 5 5 5 8 5
4 2 6 11 13 12 11 13 12 11 15 12 11 12 10 11 12 13 12 11 11 12 10 10 9 7 8 8 9 8 9 8 8 7 7 6 5 5 5 4 5 5 5 3 3 3 4 3 3 3 2 3 3 3 3 4 4 4 4 4 4 4 4 5 5 5 5 5 4 4 4 4 5 5 5 6 6 7 8 7 7 9 7 6 7
4 2 1 4 5 4 9 9 10 12 12 12 12 11 11 12 13 14 16 14 13 12 11 12 10 8 7 9 9 9 8 8 7 5 6 7 7 7 7 5 6 4 2 2 2 3 4 4 3 3 3 3 3 3 4 4 3 4 3 3 3 2 3 4 3 3 5 4 4 4 4 4 4 5 5 5 6 6 7 8 8 8 9 10 5
4 6 3 1 1 1 4 5 8 11 11 13 16 14 16 15 13 13 12 10 12 12 12 11 10 8 8 8 7 7 9 10 10 9 8 6 6 7 7 6 4 4 4 3 4 2 3 3 3 3 3 3 3 3 3 4 3 3 3 3 2 1 2 3 2 3 3 3 4 4 4 4 4 4 4 5 5 6 6 6 7 9 9 9 8
8 6 2 5 5 2 3 2 2 5 6 10 15 15 14 13 14 14 12 13 13 11 11 10 10 9 8 8 8 10 10 10 9 9 7 7 5 4 4 4 5 5 5 4 4 4 3 3 4 3 3 3 3 3 3 3 2 3 3 3 1 1 2 1 1 1 2 2 2 4 3 4 3 3 4 4 4 5 5 6 6 7 8 10 8
11 9 8 6 2 3 5 5 2 2 3 4 6 5 4 6 8 10 15 16 15 13 11 10 9 8 8 10 10 9 7 8 8 7 8 8 8 6 6 6 4 4 5 5 5 4 4 3 3 3 2 3 2 2 2 1 2 3 3 3 3 3 4 4 2 1 1 2 3 3 3 3 3 3 3 3 3 4 5 5 5 5 7 8 11
8 8 8 8 7 5 2 4 7 8 5 3 3 3 6 7 7 9 8 5 5 9 9 10 10 9 8 7 6 7 7 7 8 8 8 8 8 7 6 5 6 5 5 5 5 4 4 4 3 3 2 1 1 1 2 3 3 4 4 5 4 4 4 4 4 3 3 3 3 4 3 3 3 3 4 4 3 3 3 4 4 5 5 6 8
7 8 8 9 9 9 8 3 2 3 4 4 4 5 6 4 5 7 9 9 10 11 10 11 10 11 10 11 10 8 8 7 7 7 9 8 7 7 7 7 5 5 5 5 5 4 4 4 4 3 3 1 0 1 3 3 3 3 3 3 4 4 4 5 4 5 4 4 5 4 4 3 3 4 4 4 4 3 3 3 3 4 5 5 5
7 8 8 10 10 11 10 9 7 3 1 3 4 3 3 5 7 6 4 5 8 9 12 12 10 10 11 11 10 8 8 7 7 7 7 7 7 7 6 6 7 6 6 6 5 4 4 4 4 3 1 1 1 1 1 2 2 2 3 2 3 3 4 4 4 5 5 5 5 6 5 4 4 4 4 4 3 4 3 5 5 5 5 5 3
6 6 7 8 8 8 8 9 7 6 5 3 2 5 7 6 5 5 6 8 8 6 2 0 2 4 9 8 8 9 8 8 8 6 6 6 6 5 5 8 6 6 4 6 6 5 5 4 4 3 3 2 1 0 1 1 0 1 2 3 3 3 4 4 4 5 5 5 6 5 6 4 4 6 6 5 4 4 4 4 5 4 6 6 5
6 6 7 7 7 9 11 11 11 10 9 7 4 4 4 6 7 7 9 9 6 7 8 8 8 4 3 2 6 7 9 9 9 7 6 5 5 5 4 5 5 5 6 4 5 6 5 5 4 4 3 3 2 1 0 0 1 1 2 3 4 4 4 5 5 5 5 4 4 5 5 6 6 7 7 6 5 4 5 5 5 4 5 7 6
9 10 10 11 12 12 10 10 10 9 9 10 9 4 4 5 4 7 9 8 8 8 9 9 9 10 9 4 2 3 7 7 7 7 7 6 5 5 4 5 5 4 4 5 4 4 5 5 6 5 4 3 2 2 1 1 2 2 2 3 4 4 4 5 5 6 6 5 5 6 7 6 6 8 8 8 7 6 6 6 6 6 6 6 6
7 7 9 9 6 7 10 10 10 9 8 7 8 10 7 4 5 5 7 8 8 6 5 6 7 9 9 10 8 3 3 5 7 8 9 8 7 6 6 4 6 6 4 4 5 4 5 5 5 5 4 3 3 3 3 3 3 3 2 3 3 4 4 4 5 5 6 6 6 7 7 6 7 7 8 8 8 8 8 8 7 7 6 5 6
5 4 3 3 8 9 5 5 8 8 9 8 6 7 8 8 6 4 4 5 7 8 8 9 9 10 11 13 13 14 12 9 9 9 9 8 8 7 7 6 5 7 6 5 4 5 4 6 5 4 4 4 3 3 3 3 3 2 2 3 4 4 4 4 4 5 5 5 6 6 6 6 6 6 7 8 8 8 8 8 8 8 7 6 6
5 7 8 7 4 5 7 6 7 8 9 10 9 7 6 6 9 7 4 3 3 3 6 7 8 9 10 12 12 12 13 12 10 10 10 10 10 8 7 7 7 7 7 7 6 5 4 4 5 4 4 4 3 3 3 2 2 2 3 4 4 4 5 5 5 5 5 5 5 6 6 7 7 8 8 8 7 8 7 8 7 7 8 8 8
7 6 6 6 7 6 7 8 7 7 9 10 9 10 11 10 6 5 6 5 5 5 6 7 6 4 3 2 5 8 11 14 14 12 11 11 10 9 8 8 7 7 6 7 5 6 6 4 4 4 3 1 2 1 1 1 3 4 4 5 5 6 6 7 6 6 6 6 6 6 6 6 8 11 13 12 11 10 8 9 9 7 9 9 9
5 5 4 4 5 4 5 6 8 8 8 9 9 9 8 8 11 9 6 7 5 7 8 8 11 13 12 13 12 12 11 11 12 12 12 12 11 10 9 8 8 8 7 6 6 5 6 5 5 4 3 3 1 0 2 5 6 4 5 5 6 6 7 7 8 8 7 7 7 6 7 12 13 14 13 14 14 13 12 10 9 8 9 9 9
5 6 5 4 3 3 3 4 5 7 7 7 6 8 9 8 7 9 10 9 5 6 8 9 11 10 10 10 11 11 11 11 12 12 11 12 12 11 10 9 9 8 8 6 6 5 5 5 6 4 3 1 0 1 4 6 7 9 6 5 6 7 7 8 8 8 8 8 7 7 7 9 11 11 11 13 13 13 13 12 13 13 12 10 10
5 5 5 5 6 5 6 5 6 7 6 5 6 7 8 9 8 9 10 10 7 7 8 10 7 5 5 5 1 1 8 8 11 13 13 12 12 12 11 10 9 8 7 7 7 6 6 5 5 4 2 1 0 3 5 6 8 9 8 6 5 6 6 7 7 8 8 8 8 8 7 6 7 8 8 9 11 14 14 14 14 15 15 16 14
5 7 7 7 6 5 5 6 6 7 7 7 5 6 8 10 10 9 10 9 7 8 8 5 5 9 10 10 10 9 7 10 11 11 10 11 11 11 11 10 9 7 7 8 7 7 6 4 5 4 2 1 0 3 6 7 8 9 10 8 5 5 7 7 8 9 9 9 9 9 9 7 7 12 11 10 9 9 12 14 14 15 16 16 16
5 6 6 7 7 6 6 5 7 8 8 8 6 7 8 7 9 8 8 10 6 7 7 6 5 7 9 11 12 13 12 11 10 8 8 9 10 10 9 7 7 7 7 7 6 7 6 5 5 5 3 1 0 4 6 8 9 10 10 9 5 6 6 7 8 9 9 10 10 10 10 9 7 8 8 9 8 8 8 9 9 10 10 12 14
6 7 7 6 6 7 7 7 7 7 7 8 10 7 8 8 7 9 8 9 7 7 7 6 8 8 5 2 2 6 10 13 11 11 10 9 10 9 9 7 8 9 9 8 8 7 5 5 5 4 3 1 1 6 7 9 9 10 11 8 5 6 6 7 8 9 10 10 10 10 10 11 10 9 8 9 9 8 8 9 10 11 11 11 11
6 6 7 7 7 7 8 9 7 6 8 7 10 10 10 11 7 7 8 8 8 7 7 6 6 7 7 8 8 5 1 1 6 7 9 7 7 9 9 7 6 6 5 6 4 6 6 5 5 4 3 1 2 7 8 9 10 10 11 6 5 6 7 8 9 9 9 9 9 10 10 11 11 10 10 14 13 10 11 12 13 12 11 11 12
7 6 8 7 8 7 8 7 7 7 8 10 10 9 10 11 10 7 7 8 8 8 8 7 8 8 7 7 7 7 7 8 12 11 9 7 7 6 7 6 8 7 7 7 7 5 6 6 5 4 4 2 3 7 8 9 9 10 7 5 5 6 7 8 9 9 9 9 9 9 10 10 11 11 12 14 14 13 11 12 12 13 11 11 12
7 6 6 7 7 7 7 7 9 9 9 9 10 10 10 11 11 8 7 8 8 9 8 8 8 8 10 10 11 13 13 9 7 7 6 6 6 5 6 6 9 8 7 7 6 5 4 5 6 6 5 3 4 6 8 8 9 10 8 6 6 7 8 9 10 9 8 9 9 18 17 13 12 12 13 13 12 10 11 12 12 13 14 13 12
6 7 8 8 8 7 8 7 8 10 11 9 10 10 11 12 10 8 7 9 9 9 8 9 9 9 10 10 11 12 13 14 13 11 8 8 7 9 7 6 7 7 7 6 5 6 4 4 5 5 7 5 4 5 7 8 9 10 8 5 6 7 9 10 9 10 8 9 10 11 18 17 15 15 18 17 17 13 13 12 12 12 13 13 10
6 6 7 8 7 7 9 9 10 12 9 9 9 10 11 12 11 7 8 10 9 9 9 8 7 8 9 9 9 9 8 12 11 9 7 8 7 7 7 7 5 6 6 6 5 5 6 7 6 4 5 4 4 4 4 9 9 10 11 8 6 7 10 11 10 10 11 9 9 10 12 15 18 19 19 19 18 18 15 14 12 13 14 15 7
7 7 6 6 7 8 10 12 12 11 9 9 9 10 12 11 10 9 11 9 8 8 7 5 5 6 8 11 11 12 12 12 14 10 8 8 8 8 7 6 5 3 4 4 4 4 5 6 5 4 4 4 3 4 5 9 10 10 12 10 6 8 9 10 10 10 10 10 9 8 8 11 16 18 19 20 21 21 19 17 14 13 12 11 11
6 8 6 7 8 9 10 11 10 11 10 9 9 11 12 10 10 13 12 7 8 8 6 6 7 8 8 11 13 12 12 11 10 10 10 8 7 7 7 6 6 5 5 4 4 4 5 4 4 3 3 4 5 6 4 7 10 11 12 13 9 8 10 11 12 10 10 10 10 9 8 11 16 17 18 19 20 20 21 17 17 18 19 18 15
9 8 6 6 10 12 12 11 10 9 9 9 9 12 12 10 12 14 9 7 8 7 7 9 10 9 8 8 8 12 11 8 9 10 10 8 6 6 4 5 6 4 4 4 4 4 4 4 4 6 4 4 5 4 7 7 10 13 14 14 15 13 15 13 12 13 11 11 10 11 13 19 18 19 19 19 20 22 20 18 23 23 23 23 20
9 8 10 9 11 11 12 11 9 9 9 9 10 12 11 11 14 10 8 7 7 8 10 10 10 12 12 11 12 12 11 10 10 7 7 7 7 4 4 4 4 5 6 4 4 3 3 3 5 6 7 6 4 4 7 10 10 13 15 16 16 17 17 13 13 12 11 11 11 11 13 19 21 23 24 24 23 23 19 23 24 25 23 21 15
12 12 11 10 12 14 13 13 11 10 10 10 9 11 13 14 12 7 7 7 9 10 9 10 9 10 12 12 11 11 12 11 11 9 7 6 4 5 5 3 5 5 5 5 5 3 4 5 4 6 7 7 7 5 6 8 13 15 16 16 17 17 17 17 14 11 12 13 16 22 24 25 25 25 27 26 23 24 27 27 27 26 25 15 14
10 10 11 11 11 12 12 14 14 11 11 9 9 9 13 13 10 8 7 10 12 12 12 13 13 12 12 9 12 12 12 10 9 7 7 6 7 6 6 6 5 5 5 5 3 2 3 4 5 6 7 8 7 6 7 8 8 9 10 13 15 16 17 17 18 17 20 24 24 24 26 25 24 22 18 14 13 15 20 23 25 24 16 14 13
11 12 11 11 9 11 12 14 14 12 10 9 8 8 9 8 7 8 8 9 10 12 14 15 17 15 11 9 12 9 8 8 6 6 5 5 5 6 6 4 5 5 4 2 2 2 4 4 6 7 7 6 7 7 8 8 7 7 6 8 10 10 14 15 13 11 12 13 15 16 14 18 20 25 25 24 23 21 18 16 14 13 13 13 13
10 11 11 11 11 12 13 14 13 10 7 8 9 9 7 7 8 9 11 14 16 15 13 12 14 14 14 12 10 11 10 7 6 6 6 5 3 5 7 6 6 6 4 3 4 4 5 6 6 7 6 7 7 7 8 8 8 7 8 9 9 10 10 9 10 11 11 13 14 14 16 13 13 12 12 10 10 10 12 12 12 12 12 13 15
11 11 10 11 11 12 13 13 11 7 6 6 7 6 3 6 10 12 13 11 11 16 16 13 10 9 9 10 9 8 7 7 6 4 3 4 7 6 6 4 4 5 6 5 6 6 5 6 6 6 6 7 7 8 10 7 10 13 14 12 10 9 9 10 12 18 16 13 11 10 10 11 10 10 10 10 10 10 10 11 13 12 11 11 11
11 11 11 12 12 12 12 11 7 6 7 4 2 1 3 5 7 10 14 15 14 14 12 11 9 8 7 7 7 7 8 8 7 7 7 3 3 4 6 6 3 7 9 7 5 5 6 3 4 7 6 7 8 10 10 15 17 17 18 18 18 18 18 16 18 22 16 11 10 10 10 10 10 9 9 9 9 9 9 9 9 11 11 10 10
12 12 12 11 11 10 8 6 7 7 7 3 1 3 5 5 6 8 12 15 13 11 10 9 10 9 9 8 8 8 8 7 7 7 5 5 2 1 3 4 2 2 4 7 7 10 9 6 5 6 8 11 12 12 14 15 18 19 19 18 18 18 19 20 20 15 11 9 9 9 9 9 9 9 9 9 9 9 9 9 9 8 8 9 10
Wind_Direction
188 177 179 188 177 177 167 154 152 150 158 152 149 154 155 155 153 165 175 151 140 133 123 128 117 97 72 85 123 105 101 72 53 21 50 59 76 76 85 87 86 74 55 48 29 32 42 51 47 328 273 246 194 218 227 220 200 186 166 159 209 263 271 219 286 130 320 326 316 248 234 222 234 217 225 223 215 216 210 209 213 202 213 214 219
133 167 192 174 161 172 164 162 158 156 183 165 160 164 159 150 163 165 159 160 159 158 150 137 162 168 155 170 148 150 116 108 88 7 51 52 64 81 84 79 71 65 74 78 64 58 50 46 33 28 14 116 188 224 335 328 244 193 180 216 169 199 237 116 123 90 25 277 271 300 276 244 224 216 224 239 238 232 208 209 215 213 212 213 214
156 187 187 187 173 179 176 181 186 173 166 168 167 155 156 158 168 162 167 164 172 166 142 162 188 156 128 158 137 137 212 194 141 112 73 77 58 35 28 76 75 58 61 77 81 78 91 77 44 19 28 24 57 50 62 52 13 308 192 206 150 189 274 228 221 146 200 114 309 333 281 254 287 258 256 239 231 231 210 215 209 218 222 213 208
182 185 194 181 167 178 186 191 182 162 166 171 171 165 161 164 166 171 173 172 170 180 169 158 127 103 77 101 79 104 145 121 89 67 54 62 54 23 25 80 92 86 85 91 81 84 95 99 83 53 29 26 53 60 46 55 57 6 358 309 281 66 204 295 123 157 169 125 229 233 220 151 274 264 244 250 211 214 207 224 214 214 214 219 205
188 187 177 176 178 191 194 184 167 174 181 181 175 172 167 174 174 177 175 176 176 183 154 131 111 88 91 76 74 64 40 36 54 38 22 57 83 64 37 17 76 104 91 96 111 101 86 93 81 60 47 28 52 59 49 45 73 99 65 50 81 322 285 298 347 180 187 209 197 210 325 241 226 234 337 276 189 206 220 221 219 224 215 203 205
189 183 184 188 194 192 157 168 188 189 193 193 178 168 168 168 170 177 175 173 172 174 153 149 147 141 132 127 132 103 115 111 178 196 193 146 171 238 318 357 346 79 61 92 102 97 71 75 83 76 56 40 42 56 53 40 30 42 35 74 86 168 302 316 308 210 230 237 221 244 153 41 323 311 27 275 329 233 244 218 218 222 225 218 213
208 208 194 192 198 172 181 188 195 195 201 169 172 174 174 170 172 177 177 175 168 164 165 152 150 157 162 165 164 164 162 227 242 230 161 211 96 149 221 355 40 57 56 61 69 81 86 71 73 70 66 56 53 54 43 33 19 26 16 44 29 16 57 45 10 354 213 231 238 260 289 222 105 20 322 359 318 322 327 255 250 225 218 225 231
186 192 199 200 190 184 186 196 190 200 168 165 177 182 178 173 171 179 180 173 169 159 169 167 160 167 161 158 161 156 169 188 197 197 168 130 111 108 34 20 6 37 83 61 84 95 90 73 71 66 59 45 54 50 50 33 44 29 39 40 43 42 35 38 12 358 18 343 21 210 225 229 236 241 208 332 300 307 304 324 310 297 258 235 229
185 189 196 198 195 198 198 191 198 168 170 177 187 180 176 172 167 169 181 173 167 166 167 181 167 169 166 157 160 177 162 165 162 144 147 137 122 94 82 31 30 29 68 105 86 88 89 92 74 66 62 54 56 52 45 44 42 36 27 29 29 25 33 27 32 18 18 8 355 9 319 297 304 258 227 207 238 274 280 277 290 320 330 268 253
194 194 193 198 199 197 195 191 175 193 183 170 154 158 173 170 171 173 184 181 171 171 174 179 176 162 159 168 162 168 148 127 138 148 163 152 158 162 112 88 50 65 49 79 91 85 88 80 78 80 83 78 68 63 53 46 38 40 36 38 33 38 22 31 37 22 19 2 22 354 353 343 335 328 300 280 248 226 256 273 297 311 305 295 326
196 199 202 202 199 176 139 173 182 142 146 163 173 173 169 176 179 179 186 181 175 175 177 182 181 173 169 170 164 162 164 149 141 155 156 149 183 194 162 183 149 132 37 68 86 102 97 92 98 97 87 79 75 68 60 64 53 50 35 36 39 42 28 27 28 27 17 16 12 13 3 348 334 315 301 290 294 290 295 272 269 260 262 288 277
190 192 198 192 132 150 156 160 163 171 157 179 180 167 175 185 183 183 182 184 182 179 180 186 179 186 175 168 165 167 162 164 170 174 180 180 188 189 199 163 187 89 53 69 69 90 93 83 80 75 71 76 78 93 84 75 66 54 41 41 35 37 39 42 38 28 21 18 14 2 353 332 318 321 329 317 310 291 284 286 277 285 283 253 281
176 189 183 177 182 168 175 170 147 170 191 186 183 182 183 186 186 184 190 185 185 181 185 186 185 187 177 172 168 163 168 173 179 176 178 177 181 170 160 196 212 165 217 148 167 114 99 81 68 71 62 59 64 60 55 52 48 49 47 41 35 36 27 37 42 31 36 33 358 352 354 353 346 334 323 319 302 286 286 293 286 278 276 282 280
246 181 182 186 188 190 180 174 183 188 185 190 186 185 188 188 189 190 193 185 182 183 186 186 197 191 181 173 169 164 174 177 182 179 182 182 178 175 175 185 187 197 190 197 187 151 102 115 111 107 114 103 90 82 63 52 48 48 40 35 32 21 27 33 30 20 31 26 18 14 3 354 353 350 344 333 324 313 293 287 307 297 276 277 282
128 236 214 194 194 190 182 187 189 185 194 188 192 195 184 189 191 195 190 188 185 188 184 189 195 199 190 180 170 172 173 179 186 184 175 177 190 177 183 177 181 197 196 204 152 133 128 123 131 132 127 92 85 76 87 83 72 63 50 38 29 16 29 28 23 20 17 10 16 15 1 7 356 354 355 352 344 335 318 297 280 292 288 272 277
92 105 344 320 313 250 200 190 193 197 186 194 196 193 190 195 194 194 192 188 189 187 189 188 194 195 194 180 181 176 176 174 179 182 182 181 179 180 184 186 194 181 187 147 163 143 136 124 102 102 85 70 57 64 69 73 79 88 85 70 47 0 30 30 16 21 8 1 4 4 20 3 352 358 356 353 351 340 338 332 313 288 285 289 286
69 129 125 128 130 247 284 256 221 195 189 195 199 193 196 195 191 195 195 190 192 192 190 191 189 186 200 193 177 175 172 178 184 185 182 186 182 186 177 191 176 164 171 160 148 133 133 130 121 103 88 85 72 73 74 67 63 55 45 44 56 24 71 26 7 22 357 351 356 3 357 348 345 350 351 350 342 340 337 332 330 323 308 281 285
57 55 68 142 152 181 227 224 266 300 268 220 204 200 202 195 192 190 186 191 197 191 191 190 187 192 193 194 191 184 183 185 179 181 176 172 187 186 166 150 184 179 160 154 143 143 153 135 129 118 107 100 112 100 90 88 77 56 39 9 0 49 41 28 3 4 338 339 349 337 340 337 334 345 341 330 332 334 329 331 331 325 323 307 284
36 38 48 36 22 210 190 213 233 229 213 251 297 294 255 210 203 194 195 198 191 189 190 189 187 191 191 192 189 190 190 182 182 174 166 174 179 179 176 182 150 146 142 140 142 145 137 121 119 105 90 90 80 81 80 78 56 22 0 348 335 355 349 333 315 325 299 334 329 322 321 318 317 318 314 315 316 324 318 320 320 320 317 315 311
40 38 29 24 35 21 272 233 205 203 223 236 212 205 242 236 220 211 210 195 184 193 188 190 192 189 192 189 192 190 185 180 179 170 175 179 179 172 168 160 173 151 146 145 145 146 139 119 102 111 94 65 38 11 23 25 26 19 5 351 332 346 338 324 316 319 318 321 315 313 309 307 304 308 309 307 305 295 299 308 305 306 302 302 308
36 40 36 31 22 23 16 337 276 252 181 169 191 218 231 220 239 234 213 197 193 193 188 199 189 193 185 186 183 179 183 179 174 178 175 178 173 170 172 170 144 153 144 144 146 142 131 129 126 123 130 138 69 11 19 40 34 9 349 340 328 335 333 321 322 320 323 319 315 309 305 298 299 298 293 298 298 301 306 295 293 292 290 295 299
29 37 34 32 26 26 32 22 2 352 277 197 187 185 221 223 227 222 222 217 204 196 198 200 194 193 191 187 180 176 170 166 169 175 175 171 167 169 163 147 157 160 150 146 143 137 131 128 123 125 104 67 61 49 29 47 15 0 332 329 329 322 321 311 321 316 318 315 312 310 310 313 307 295 294 291 286 293 293 305 308 302 294 289 287
25 31 33 34 29 24 25 35 39 17 325 287 212 193 202 210 216 223 219 224 211 206 198 342 282 235 205 187 173 170 165 167 164 170 170 168 164 156 155 152 151 149 146 143 144 140 133 121 111 104 95 96 106 85 29 80 87 324 306 313 305 307 295 294 297 294 296 303 309 307 309 313 311 308 304 294 290 284 281 280 288 298 300 299 299
29 34 37 36 36 27 23 20 18 14 18 8 327 304 254 212 200 198 212 218 196 173 176 177 169 198 285 233 183 168 164 164 164 163 161 161 153 148 147 142 141 137 138 132 130 131 123 118 115 113 117 120 102 74 24 234 278 272 288 287 301 301 295 288 286 284 283 279 277 295 303 309 312 307 306 306 297 285 283 282 286 286 289 295 295
32 27 21 24 25 21 18 13 9 9 10 9 360 324 279 271 236 209 211 198 197 190 191 186 184 171 158 174 233 186 167 162 153 148 149 146 143 136 138 136 128 127 127 119 105 117 115 121 130 133 122 125 158 177 199 282 288 264 257 277 285 289 286 288 284 283 277 268 274 280 284 290 295 297 299 300 303 302 297 295 292 291 285 286 292
36 30 27 26 13 17 17 9 2 1 3 4 356 353 332 282 254 231 213 204 196 182 194 189 180 169 162 153 146 154 180 162 151 149 148 147 143 143 138 137 136 127 112 109 124 120 130 131 129 134 143 162 175 185 195 226 238 245 250 260 265 269 277 279 284 283 278 275 277 278 279 275 272 275 281 286 287 286 291 288 287 284 282 281 284
31 38 26 18 18 15 12 6 359 355 351 349 355 353 347 333 298 278 266 236 206 187 186 181 184 182 171 173 170 166 163 168 164 156 148 145 146 148 143 140 135 131 129 123 128 126 131 130 136 133 152 170 182 191 206 220 230 236 255 266 274 273 273 274 272 275 281 294 296 298 295 291 287 282 281 282 285 285 280 280 279 283 279 277 280
24 26 22 20 5 356 359 360 4 357 344 347 343 342 348 338 324 303 263 271 283 216 198 196 190 194 188 178 171 166 160 163 161 155 153 150 146 145 140 136 134 133 137 143 145 138 137 124 144 148 165 164 169 185 218 233 245 259 261 264 265 273 273 273 274 273 275 275 278 284 289 291 290 291 290 291 293 293 294 289 290 293 293 289 283
13 6 3 0 4 351 349 350 347 351 350 344 343 340 340 341 337 321 286 245 212 205 204 190 177 174 201 205 188 188 172 158 154 153 151 149 146 142 139 139 139 139 143 147 142 135 133 129 141 145 141 120 149 222 264 293 297 294 279 279 282 279 279 278 275 271 268 268 269 268 271 269 273 278 282 285 284 284 289 290 287 285 285 284 283
356 345 340 337 333 336 333 339 340 343 341 338 337 335 333 331 327 330 318 274 221 209 205 196 193 195 189 179 177 176 171 159 152 155 155 148 143 143 142 142 143 145 145 141 138 145 147 146 124 118 144 153 171 222 276 296 300 294 295 294 290 285 282 279 280 279 274 267 263 262 260 265 271 273 275 276 278 279 276 275 283 287 284 282 278
335 329 328 309 292 299 307 320 320 322 326 322 317 319 321 320 319 323 320 304 251 227 209 208 210 207 193 180 175 177 162 160 158 155 153 151 148 145 144 142 144 148 147 146 139 130 125 136 137 129 111 105 45 303 315 314 314 311 308 299 291 289 283 280 277 275 276 273 267 258 257 259 263 266 266 265 268 270 271 274 277 276 276 277 287
308 304 306 314 324 329 330 320 312 305 301 304 307 313 316 314 317 317 314 303 263 234 225 219 211 154 148 160 138 224 155 170 165 163 160 156 148 144 144 147 148 148 142 131 127 139 144 137 124 119 109 101 306 282 310 319 316 313 308 302 297 293 293 287 281 278 275 274 272 268 260 256 256 256 260 263 262 261 263 266 268 272 274 273 265
298 310 313 311 310 308 304 306 303 300 300 293 289 302 305 308 312 311 311 299 256 232 229 213 168 169 169 170 157 175 192 184 183 171 157 147 145 144 142 142 154 148 132 133 144 138 142 140 126 125 128 168 231 292 309 306 298 298 298 300 294 290 291 291 287 283 279 277 275 273 271 258 254 258 262 266 262 262 262 262 264 267 269 268 269
282 282 286 291 299 297 288 282 282 285 285 286 291 290 288 293 299 303 309 297 249 233 219 200 182 180 181 178 175 177 181 185 168 156 146 146 140 140 143 139 124 125 132 135 142 142 145 140 138 143 158 163 236 282 284 285 289 289 292 296 289 287 284 283 285 282 280 278 275 275 276 274 263 258 257 257 255 256 258 263 264 264 265 265 264
282 288 287 283 279 285 290 294 291 287 294 307 305 302 299 299 300 302 302 293 260 226 218 193 187 192 189 187 228 213 197 179 160 154 150 148 142 128 127 133 140 146 146 150 154 149 151 146 148 142 141 181 226 265 272 277 282 286 288 295 282 279 280 281 279 277 274 274 274 273 272 273 273 264 250 243 247 247 254 260 263 263 261 265 264
262 265 274 280 282 279 282 285 289 295 295 296 295 303 306 300 297 288 291 283 260 231 218 194 182 169 166 158 147 130 23 328 108 123 127 133 131 134 135 133 128 132 134 138 147 141 149 154 147 141 156 198 255 258 267 273 279 286 293 294 285 279 282 281 279 277 276 275 274 272 274 273 271 267 257 247 247 254 259 262 264 264 263 258 257
259 250 262 264 270 274 272 274 278 282 288 291 293 295 295 296 294 282 279 275 258 233 213 194 180 173 165 148 136 124 131 169 149 136 131 127 117 117 122 130 131 145 152 165 165 172 163 147 156 168 168 207 246 261 263 273 283 292 298 285 281 282 280 281 276 276 277 277 276 275 272 273 269 267 263 257 254 250 258 260 263 266 264 263 262
258 270 267 267 267 271 271 266 275 277 274 279 283 288 290 289 287 281 270 268 249 238 215 195 185 174 162 154 147 144 141 132 94 87 98 102 101 107 134 146 145 159 172 180 174 158 152 155 165 179 183 194 237 255 265 280 289 293 292 288 284 286 285 281 283 276 277 277 275 280 282 281 279 274 272 265 259 255 263 264 266 268 267 264 265
249 254 267 270 268 259 266 270 268 271 275 272 273 281 285 283 280 276 262 259 248 232 215 197 189 175 164 156 156 155 153 142 134 138 133 123 144 152 167 159 164 168 175 171 165 155 163 187 192 184 200 204 229 258 274 283 288 292 295 289 289 290 290 287 286 286 276 275 277 279 281 282 281 280 279 276 273 270 270 269 268 267 264 263 262
255 249 243 255 265 279 276 268 266 268 270 269 273 274 273 275 277 268 259 253 245 227 216 206 181 169 162 147 137 130 126 118 110 109 139 158 160 140 159 170 174 169 160 175 165 158 169 196 203 198 218 216 221 256 267 276 285 289 291 293 290 293 290 290 288 286 289 280 270 273 269 266 270 274 275 274 273 268 268 271 268 263 265 266 274
267 262 253 257 258 253 266 274 276 273 270 267 265 268 268 268 270 269 258 249 243 225 212 192 164 159 156 148 149 149 143 130 131 149 148 144 150 156 161 159 164 160 138 146 165 176 186 201 204 212 225 250 220 241 266 273 281 287 289 292 288 280 281 285 288 287 284 284 280 269 267 264 265 267 267 268 268 267 264 266 260 258 257 269 274
231 251 261 266 268 271 272 275 273 274 270 263 261 260 262 265 266 260 258 248 236 218 183 162 158 156 156 156 152 141 128 121 125 133 140 153 169 154 163 171 153 160 161 166 173 185 191 222 251 252 244 254 258 250 263 276 280 285 286 286 288 281 280 288 287 282 281 279 278 278 273 271 269 269 269 269 268 266 265 264 262 262 263 260 259
294 283 258 258 286 290 286 277 277 273 271 265 257 259 261 261 259 259 257 240 224 194 162 159 157 146 136 133 125 118 113 116 136 142 148 157 156 161 160 146 152 149 150 166 184 191 195 236 271 275 262 260 266 277 279 284 285 287 290 291 286 286 283 282 282 283 280 279 275 275 280 283 279 275 272 269 267 265 265 262 263 261 260 259 258
275 268 286 292 283 279 280 281 276 274 270 266 257 260 260 258 257 257 251 229 198 175 165 160 156 149 145 144 130 119 123 135 137 151 148 156 166 151 129 139 137 146 154 174 207 188 201 242 260 281 289 283 280 275 283 282 287 289 293 292 289 284 281 277 278 279 283 281 284 282 284 285 283 280 276 273 270 266 263 262 260 259 258 256 254
284 289 289 284 279 281 280 281 282 278 273 266 257 256 258 255 254 239 227 195 175 167 151 143 144 142 133 129 128 137 147 148 157 161 155 157 132 136 124 127 130 141 161 185 206 185 213 242 269 271 279 286 286 288 284 287 288 290 289 289 287 284 282 281 281 280 279 282 282 283 284 283 281 278 275 273 269 265 260 259 258 257 256 253 251
273 279 278 275 276 274 278 282 284 278 273 263 256 251 253 250 241 221 200 180 171 159 148 147 139 127 132 151 145 151 155 149 148 153 154 155 154 155 138 145 147 160 169 183 206 198 238 259 266 272 275 277 288 292 289 289 286 284 286 284 286 290 288 284 279 280 281 282 282 282 281 279 278 276 274 269 262 260 257 254 253 252 249 245 241
274 271 275 278 275 278 280 282 284 282 271 260 256 253 248 245 225 198 180 166 156 149 153 151 141 142 150 149 155 154 137 127 110 86 90 119 128 127 125 138 153 156 167 180 229 241 266 273 272 274 276 283 284 285 286 284 284 284 278 289 298 294 289 286 284 283 283 284 283 283 283 282 279 277 274 271 268 266 264 260 254 247 242 237 234
261 269 269 269 270 273 279 281 281 275 267 277 274 264 257 220 190 171 160 160 156 152 146 137 138 144 149 159 149 138 134 118 116 121 118 101 88 127 137 152 163 170 163 209 221 244 248 256 265 270 275 282 282 282 281 282 289 290 301 304 300 298 296 293 292 291 292 290 291 288 284 279 278 276 273 269 262 256 253 253 249 243 238 234 232
277 271 264 265 272 277 277 280 276 274 279 281 272 282 266 192 169 150 138 132 132 129 126 130 129 129 141 135 134 132 124 118 110 102 86 138 151 163 168 196 223 168 164 177 205 229 241 246 238 255 258 272 279 279 270 276 296 306 308 307 305 300 300 298 295 297 298 295 288 283 279 281 277 278 279 275 270 263 257 250 248 245 237 233 229
269 267 267 270 272 272 275 272 275 283 290 258 276 5 51 97 110 119 119 119 121 121 123 126 129 137 131 122 109 107 115 122 130 125 113 59 2 180 177 156 203 218 213 213 166 204 229 204 220 249 218 234 255 263 290 302 304 309 307 302 300 301 301 301 303 303 302 297 292 289 287 286 286 286 284 284 281 276 272 264 253 243 238 232 226
277 279 279 275 274 272 262 275 282 287 272 198 102 83 78 87 85 94 108 115 124 127 135 144 148 151 144 125 116 117 121 121 120 120 119 136 109 24 238 237 219 178 199 230 234 249 269 241 212 262 265 238 251 276 291 302 315 313 309 308 309 309 308 309 309 308 304 294 291 291 293 290 288 288 287 287 286 288 285 281 270 255 238 232 228